[[{"header":{"parameterUnit":"m.s-1","parameterCategory":1,"la1":30.2992,"la2":30.254,"lo1":-89.0895,"lo2":-89.0443,"dy":0.0025,"dx":0.0025,"nx":19,"ny":19,"refTime":"2026-05-15T09:00:00:Z","depth":0,"parameterNumber":2,"parameterNumberName":"U-component_of_WINDS"},"data":[0,0,0,-0.8775,-0.8774,-0.8733,-0.8733,-0.8682,-0.8681,0,0,0,0,0,0,0,0,0,0,0,-0.8788,-0.8788,-0.8775,-0.8774,-0.8733,-0.8733,-0.8682,-0.8681,0,0,0,0,0,0,0,0,0,0,0,-0.8788,-0.8788,-0.8787,-0.8774,-0.8733,-0.8733,-0.8682,-0.8712,0,0,0,0,0,0,0,0,0,0,-0.8752,-0.8764,-0.8788,-0.8787,-0.8774,-0.8733,-0.8733,-0.8714,-0.871,-0.8701,0,-0.8692,0,-0.8686,-0.8678,-0.8678,0,0,0,-0.8774,-0.8767,-0.8756,-0.8787,-0.8774,-0.8733,-0.8752,-0.8712,-0.8708,-0.8696,-0.8691,-0.8689,-0.8685,-0.8677,-0.8677,-0.8623,-0.8623,0,0,-0.8776,-0.8781,-0.8758,-0.8753,-0.876,-0.8753,-0.875,-0.871,-0.8705,-0.8691,-0.8688,-0.8684,-0.8677,-0.8677,-0.8623,-0.8623,0,0,0,-0.8783,-0.8782,-0.8772,-0.8755,-0.8748,-0.8752,-0.8749,-0.8706,-0.8703,-0.8688,-0.8684,-0.8677,-0.8676,-0.8623,-0.8623,-0.8616,0,0,0,-0.8784,-0.8786,-0.8773,-0.8775,-0.8749,-0.8727,-0.8746,-0.8705,-0.8701,-0.8684,-0.8677,-0.8676,-0.8624,-0.8623,-0.8617,-0.8612,0,0,0,-0.879,-0.8787,-0.8781,-0.8776,-0.8758,-0.8727,-0.8721,-0.8704,-0.8698,-0.8678,-0.8676,-0.8624,-0.8623,-0.8618,-0.8613,-0.8599,0,0,0,-0.8798,-0.8776,-0.8781,-0.8755,-0.8759,-0.8724,-0.8721,-0.8695,-0.8676,-0.8677,-0.8624,-0.8623,-0.8618,-0.8614,-0.86,-0.8588,-0.8584,0,0,-0.8772,-0.8773,-0.8756,-0.876,-0.8726,-0.8729,-0.8693,-0.8672,-0.8666,-0.8638,-0.8636,-0.8617,-0.8613,-0.8599,-0.8558,-0.8555,0,0,0,-0.875,-0.8738,-0.8728,-0.8711,-0.8694,-0.868,-0.8663,-0.8656,-0.8632,-0.8652,-0.8608,-0.8606,-0.8597,-0.8591,-0.8589,-0.8581,-0.8621,-0.8621,-0.8621,-0.8719,-0.8713,-0.8686,-0.8675,-0.8658,-0.8642,-0.8628,-0.8615,-0.8613,-0.8603,-0.8594,-0.857,-0.8563,-0.8561,-0.8553,-0.8588,-0.8588,-0.8588,-0.8588,-0.868,-0.8663,-0.8662,-0.8635,-0.8628,-0.8606,-0.859,-0.8589,-0.8568,-0.8576,-0.8568,-0.8577,-0.8557,-0.855,-0.8587,-0.8587,-0.8587,-0.8587,-0.8587,-0.8659,-0.865,-0.8641,-0.8616,-0.8598,-0.8588,-0.8567,-0.8562,-0.8557,-0.8549,-0.854,-0.854,-0.8539,-0.8545,-0.8545,-0.8545,-0.8545,-0.8545,-0.8545,-0.864,-0.8631,-0.8614,-0.8595,-0.8584,-0.8569,-0.8553,-0.8542,-0.8528,-0.8526,-0.8526,-0.8525,-0.8557,-0.8565,-0.8544,-0.8544,-0.8544,-0.8544,-0.8544,-0.8603,-0.8611,-0.8585,-0.8573,-0.8551,-0.8534,-0.8528,-0.8506,-0.8496,-0.8486,-0.8487,-0.8511,-0.8511,-0.8513,-0.852,-0.8488,-0.8488,-0.8488,-0.8488,-0.8585,-0.8584,-0.8557,-0.8539,-0.8522,-0.8514,-0.8485,-0.8473,-0.8462,-0.8456,-0.846,-0.8468,-0.8471,-0.8469,-0.8472,-0.8478,-0.8437,-0.8437,-0.8437,-0.8561,-0.8559,-0.8535,-0.8524,-0.8507,-0.8492,-0.8465,-0.8445,-0.8434,-0.8434,-0.8451,-0.8453,-0.8466,-0.8471,-0.8471,-0.8476,-0.8486,0,0]},{"header":{"parameterUnit":"m.s-1","parameterCategory":1,"la1":30.2992,"la2":30.254,"lo1":-89.0895,"lo2":-89.0443,"dy":0.0025,"dx":0.0025,"nx":19,"ny":19,"refTime":"2026-05-15T09:00:00:Z","depth":0,"parameterNumber":3,"parameterNumberName":"V-component_of_WINDS"},"data":[0,0,0,3.78,3.7799,3.7728,3.7727,3.7641,3.7641,0,0,0,0,0,0,0,0,0,0,0,3.7826,3.7826,3.78,3.7798,3.7728,3.7727,3.7641,3.7641,0,0,0,0,0,0,0,0,0,0,0,3.7826,3.7826,3.7825,3.7798,3.7728,3.7727,3.7642,3.7693,0,0,0,0,0,0,0,0,0,0,3.776,3.779,3.7826,3.7825,3.7798,3.7728,3.7727,3.7695,3.769,3.7676,0,3.7668,0,3.7653,3.7635,3.7635,0,0,0,3.7794,3.7795,3.7772,3.7825,3.7797,3.7728,3.7758,3.7692,3.7686,3.7669,3.7666,3.7663,3.7652,3.7635,3.7634,3.758,3.758,0,0,3.7798,3.7815,3.7776,3.7768,3.7782,3.7761,3.7756,3.7688,3.7686,3.7666,3.7661,3.765,3.7634,3.7634,3.758,3.758,0,0,0,3.7812,3.7818,3.7796,3.7772,3.7759,3.7759,3.7754,3.7689,3.768,3.766,3.7649,3.7634,3.7633,3.758,3.758,3.7597,0,0,0,3.7814,3.7827,3.7798,3.7808,3.776,3.7723,3.7756,3.7685,3.7677,3.765,3.7634,3.7632,3.758,3.758,3.7597,3.7602,0,0,0,3.7829,3.7828,3.782,3.7809,3.778,3.7724,3.7711,3.7683,3.767,3.7635,3.7632,3.758,3.758,3.7596,3.7601,3.7593,0,0,0,3.7849,3.7834,3.7821,3.78,3.7781,3.7736,3.7712,3.7677,3.7648,3.7633,3.758,3.758,3.7596,3.76,3.7593,3.759,3.7591,0,0,3.784,3.7834,3.782,3.7806,3.7769,3.7746,3.7709,3.7665,3.7644,3.7602,3.76,3.7597,3.7601,3.7593,3.7589,3.7589,0,0,0,3.7824,3.7814,3.7801,3.7777,3.7745,3.7717,3.7677,3.7661,3.7625,3.7627,3.7591,3.7593,3.7588,3.7586,3.7586,3.7581,3.758,3.758,3.758,3.7836,3.7813,3.7789,3.7758,3.7734,3.7695,3.7673,3.7643,3.7624,3.7616,3.7603,3.7604,3.7602,3.7602,3.7597,3.76,3.76,3.76,3.76,3.7821,3.7804,3.7783,3.7752,3.7727,3.77,3.7661,3.7648,3.7618,3.7611,3.7605,3.7599,3.7604,3.7598,3.7601,3.7601,3.7601,3.7601,3.7601,3.7826,3.7815,3.7797,3.7761,3.7736,3.7703,3.7677,3.7654,3.7631,3.7625,3.761,3.7609,3.7606,3.762,3.762,3.762,3.762,3.762,3.762,3.7839,3.7819,3.7801,3.7768,3.775,3.7724,3.7685,3.7666,3.7638,3.7623,3.7623,3.7605,3.761,3.7611,3.762,3.762,3.762,3.762,3.762,3.7832,3.7831,3.7803,3.7786,3.7745,3.7722,3.7694,3.7657,3.7638,3.7626,3.7609,3.7617,3.7607,3.7606,3.7608,3.7615,3.7615,3.7615,3.7615,3.7837,3.7831,3.7799,3.7773,3.7744,3.7717,3.7685,3.7655,3.7622,3.7608,3.7604,3.7604,3.7604,3.7595,3.7594,3.7595,3.7598,3.7598,3.7598,3.7832,3.7823,3.7801,3.7773,3.774,3.7712,3.7681,3.765,3.7612,3.7597,3.7597,3.7598,3.7597,3.7598,3.7582,3.7582,3.7583,0,0]}]]